Year,Month,Day,Hour,Minute,Value (Times are PST for temperature in C)
2011,04,01,00,00,8.40
2011,04,01,00,01,8.40
2011,04,01,00,02,8.40
2011,04,01,00,03,8.40
2011,04,01,00,04,8.40
2011,04,01,00,05,8.40
2011,04,01,00,06,8.40
2011,04,01,00,07,8.40
2011,04,01,00,08,8.40
2011,04,01,00,09,8.40
2011,04,01,00,10,8.40
2011,04,01,00,11,8.40
2011,04,01,00,12,8.40
2011,04,01,00,13,8.40
2011,04,01,00,14,8.40
2011,04,01,00,15,8.40
2011,04,01,00,16,8.40
2011,04,01,00,17,8.40
2011,04,01,00,18,8.40
2011,04,01,00,19,8.40
2011,04,01,00,20,8.40
2011,04,01,00,21,8.40
2011,04,01,00,22,8.40
2011,04,01,00,23,8.40
2011,04,01,00,24,8.40
2011,04,01,00,25,8.40
2011,04,01,00,26,8.40
2011,04,01,00,27,8.40
2011,04,01,00,28,8.40
2011,04,01,00,29,8.40
2011,04,01,00,30,8.50
2011,04,01,00,31,8.50
2011,04,01,00,32,8.50
2011,04,01,00,33,8.50
2011,04,01,00,34,8.50
2011,04,01,00,35,8.50
2011,04,01,00,36,8.50
2011,04,01,00,37,8.50
2011,04,01,00,38,8.50
2011,04,01,00,39,8.50
2011,04,01,00,40,8.60
2011,04,01,00,41,8.60
2011,04,01,00,42,8.60
2011,04,01,00,43,8.60
2011,04,01,00,44,8.60
2011,04,01,00,45,8.60
2011,04,01,00,46,8.60
2011,04,01,00,47,8.60
2011,04,01,00,48,8.60
2011,04,01,00,49,8.60
2011,04,01,00,50,8.60
2011,04,01,00,51,8.60
2011,04,01,00,52,8.60
2011,04,01,00,53,8.60
2011,04,01,00,54,8.60
2011,04,01,00,55,8.60
2011,04,01,00,56,8.60
2011,04,01,00,57,8.60
2011,04,01,00,58,8.60
2011,04,01,00,59,8.60
2011,04,01,01,00,8.60
2011,04,01,01,01,8.60
2011,04,01,01,02,8.60
2011,04,01,01,03,8.50
2011,04,01,01,04,8.50
2011,04,01,01,05,8.50
2011,04,01,01,06,8.50
2011,04,01,01,07,8.40
2011,04,01,01,08,8.40
2011,04,01,01,09,8.40
2011,04,01,01,10,8.40
2011,04,01,01,11,8.40
2011,04,01,01,12,8.40
2011,04,01,01,13,8.30
2011,04,01,01,14,8.30
2011,04,01,01,15,8.30
2011,04,01,01,16,8.30
2011,04,01,01,17,8.30
2011,04,01,01,18,8.30
2011,04,01,01,19,8.30
2011,04,01,01,20,8.30
2011,04,01,01,21,8.30
2011,04,01,01,22,8.30
2011,04,01,01,23,8.30
2011,04,01,01,24,8.30
2011,04,01,01,25,8.30
2011,04,01,01,26,8.30
2011,04,01,01,27,8.30
2011,04,01,01,28,8.30
2011,04,01,01,29,8.30
2011,04,01,01,30,8.30
2011,04,01,01,31,8.30
2011,04,01,01,32,8.30
2011,04,01,01,33,8.30
2011,04,01,01,34,8.30
2011,04,01,01,35,8.40
2011,04,01,01,36,8.30
2011,04,01,01,37,8.40
2011,04,01,01,38,8.40
2011,04,01,01,39,8.40
2011,04,01,01,40,8.40
2011,04,01,01,41,8.40
2011,04,01,01,42,8.40
2011,04,01,01,43,8.40
2011,04,01,01,44,8.40
2011,04,01,01,45,8.40
2011,04,01,01,46,8.40
2011,04,01,01,47,8.40
2011,04,01,01,48,8.40
2011,04,01,01,49,8.40
2011,04,01,01,50,8.40
2011,04,01,01,51,8.40
2011,04,01,01,52,8.40
2011,04,01,01,53,8.40
2011,04,01,01,54,8.40
2011,04,01,01,55,8.40
2011,04,01,01,56,8.30
2011,04,01,01,57,8.30
2011,04,01,01,58,8.30
2011,04,01,01,59,8.30
2011,04,01,02,00,8.30
2011,04,01,02,01,8.30
2011,04,01,02,02,8.30
2011,04,01,02,03,8.30
2011,04,01,02,04,8.30
2011,04,01,02,05,8.30
2011,04,01,02,06,8.30
2011,04,01,02,07,8.30
2011,04,01,02,08,8.30
2011,04,01,02,09,8.30
2011,04,01,02,10,8.20
2011,04,01,02,11,8.20
2011,04,01,02,12,8.20
2011,04,01,02,13,8.20
2011,04,01,02,14,8.20
2011,04,01,02,15,8.20
2011,04,01,02,16,8.20
2011,04,01,02,17,8.20
2011,04,01,02,18,8.20
2011,04,01,02,19,8.10
2011,04,01,02,20,8.10
2011,04,01,02,21,8.10
2011,04,01,02,22,8.10
2011,04,01,02,23,8.10
2011,04,01,02,24,8.10
2011,04,01,02,25,8.10
2011,04,01,02,26,8.10
2011,04,01,02,27,8.00
2011,04,01,02,28,8.00
2011,04,01,02,29,8.00
2011,04,01,02,30,8.00
2011,04,01,02,31,8.00
2011,04,01,02,32,8.00
2011,04,01,02,33,8.00
2011,04,01,02,34,8.00
2011,04,01,02,35,8.00
2011,04,01,02,36,8.00
2011,04,01,02,37,8.00
2011,04,01,02,38,7.90
2011,04,01,02,39,7.90
2011,04,01,02,40,7.90
2011,04,01,02,41,7.90
2011,04,01,02,42,7.90
2011,04,01,02,43,7.90
2011,04,01,02,44,7.90
2011,04,01,02,45,7.90
2011,04,01,02,46,7.90
2011,04,01,02,47,7.90
2011,04,01,02,48,7.90
2011,04,01,02,49,7.90
2011,04,01,02,50,7.90
2011,04,01,02,51,7.90
2011,04,01,02,52,7.90
2011,04,01,02,53,7.80
2011,04,01,02,54,7.80
2011,04,01,02,55,7.80
2011,04,01,02,56,7.80
2011,04,01,02,57,7.80
2011,04,01,02,58,7.80
2011,04,01,02,59,7.80
2011,04,01,03,00,7.80
2011,04,01,03,01,7.80
2011,04,01,03,02,7.70
2011,04,01,03,03,7.70
2011,04,01,03,04,7.70
2011,04,01,03,05,7.70
2011,04,01,03,06,7.70
2011,04,01,03,07,7.70
2011,04,01,03,08,7.70
2011,04,01,03,09,7.70
2011,04,01,03,10,7.60
2011,04,01,03,11,7.60
2011,04,01,03,12,7.60
2011,04,01,03,13,7.60
2011,04,01,03,14,7.60
2011,04,01,03,15,7.60
2011,04,01,03,16,7.60
2011,04,01,03,17,7.60
2011,04,01,03,18,7.60
2011,04,01,03,19,7.60
2011,04,01,03,20,7.60
2011,04,01,03,21,7.60
2011,04,01,03,22,7.60
2011,04,01,03,23,7.60
2011,04,01,03,24,7.60
2011,04,01,03,25,7.60
2011,04,01,03,26,7.60
2011,04,01,03,27,7.60
2011,04,01,03,28,7.60
2011,04,01,03,29,7.60
2011,04,01,03,30,7.70
2011,04,01,03,31,7.70
2011,04,01,03,32,7.70
2011,04,01,03,33,7.70
2011,04,01,03,34,7.70
2011,04,01,03,35,7.70
2011,04,01,03,36,7.70
2011,04,01,03,37,7.70
2011,04,01,03,38,7.70
2011,04,01,03,39,7.70
2011,04,01,03,40,7.70
2011,04,01,03,41,7.70
2011,04,01,03,42,7.70
2011,04,01,03,43,7.70
2011,04,01,03,44,7.70
2011,04,01,03,45,7.70
2011,04,01,03,46,7.70
2011,04,01,03,47,7.70
2011,04,01,03,48,7.70
2011,04,01,03,49,7.70
2011,04,01,03,50,7.70
2011,04,01,03,51,7.70
2011,04,01,03,52,7.70
2011,04,01,03,53,7.70
2011,04,01,03,54,7.60
2011,04,01,03,55,7.60
2011,04,01,03,56,7.60
2011,04,01,03,57,7.60
2011,04,01,03,58,7.60
2011,04,01,03,59,7.60
2011,04,01,04,00,7.60
2011,04,01,04,01,7.60
2011,04,01,04,02,7.60
2011,04,01,04,03,7.60
2011,04,01,04,04,7.60
2011,04,01,04,05,7.60
2011,04,01,04,06,7.60
2011,04,01,04,07,7.60
2011,04,01,04,08,7.60
2011,04,01,04,09,7.60
2011,04,01,04,10,7.60
2011,04,01,04,11,7.60
2011,04,01,04,12,7.60
2011,04,01,04,13,7.50
2011,04,01,04,14,7.50
2011,04,01,04,15,7.50
2011,04,01,04,16,7.50
2011,04,01,04,17,7.50
2011,04,01,04,18,7.40
2011,04,01,04,19,7.40
2011,04,01,04,20,7.40
2011,04,01,04,21,7.40
2011,04,01,04,22,7.40
2011,04,01,04,23,7.40
2011,04,01,04,24,7.40
2011,04,01,04,25,7.40
2011,04,01,04,26,7.40
2011,04,01,04,27,7.40
2011,04,01,04,28,7.40
2011,04,01,04,29,7.40
2011,04,01,04,30,7.40
2011,04,01,04,31,7.40
2011,04,01,04,32,7.40
2011,04,01,04,33,7.30
2011,04,01,04,34,7.30
2011,04,01,04,35,7.30
2011,04,01,04,36,7.30
2011,04,01,04,37,7.30
2011,04,01,04,38,7.30
2011,04,01,04,39,7.30
2011,04,01,04,40,7.30
2011,04,01,04,41,7.30
2011,04,01,04,42,7.30
2011,04,01,04,43,7.30
2011,04,01,04,44,7.30
2011,04,01,04,45,7.30
2011,04,01,04,46,7.30
2011,04,01,04,47,7.30
2011,04,01,04,48,7.30
2011,04,01,04,49,7.20
2011,04,01,04,50,7.20
2011,04,01,04,51,7.20
2011,04,01,04,52,7.20
2011,04,01,04,53,7.20
2011,04,01,04,54,7.20
2011,04,01,04,55,7.20
2011,04,01,04,56,7.20
2011,04,01,04,57,7.20
2011,04,01,04,58,7.20
2011,04,01,04,59,7.20
2011,04,01,05,00,7.20
2011,04,01,05,01,7.20
2011,04,01,05,02,7.20
2011,04,01,05,03,7.20
2011,04,01,05,04,7.20
2011,04,01,05,05,7.20
2011,04,01,05,06,7.20
2011,04,01,05,07,7.20
2011,04,01,05,08,7.20
2011,04,01,05,09,7.20
2011,04,01,05,10,7.20
2011,04,01,05,11,7.20
2011,04,01,05,12,7.30
2011,04,01,05,13,7.30
2011,04,01,05,14,7.30
2011,04,01,05,15,7.30
2011,04,01,05,16,7.30
2011,04,01,05,17,7.30
2011,04,01,05,18,7.30
2011,04,01,05,19,7.30
2011,04,01,05,20,7.30
2011,04,01,05,21,7.30
2011,04,01,05,22,7.30
2011,04,01,05,23,7.30
2011,04,01,05,24,7.30
2011,04,01,05,25,7.30
2011,04,01,05,26,7.30
2011,04,01,05,27,7.30
2011,04,01,05,28,7.30
2011,04,01,05,29,7.30
2011,04,01,05,30,7.30
2011,04,01,05,31,7.30
2011,04,01,05,32,7.30
2011,04,01,05,33,7.30
2011,04,01,05,34,7.30
2011,04,01,05,35,7.20
2011,04,01,05,36,7.20
2011,04,01,05,37,7.20
2011,04,01,05,38,7.20
2011,04,01,05,39,7.20
2011,04,01,05,40,7.20
2011,04,01,05,41,7.20
2011,04,01,05,42,7.20
2011,04,01,05,43,7.20
2011,04,01,05,44,7.20
2011,04,01,05,45,7.20
2011,04,01,05,46,7.10
2011,04,01,05,47,7.10
2011,04,01,05,48,7.10
2011,04,01,05,49,7.10
2011,04,01,05,50,7.10
2011,04,01,05,51,7.10
2011,04,01,05,52,7.10
2011,04,01,05,53,7.10
2011,04,01,05,54,7.10
2011,04,01,05,55,7.10
2011,04,01,05,56,7.10
2011,04,01,05,57,7.00
2011,04,01,05,58,7.00
2011,04,01,05,59,7.00
2011,04,01,06,00,7.00
2011,04,01,06,01,7.00
2011,04,01,06,02,7.00
2011,04,01,06,03,7.00
2011,04,01,06,04,7.00
2011,04,01,06,05,7.00
2011,04,01,06,06,7.00
2011,04,01,06,07,7.00
2011,04,01,06,08,7.00
2011,04,01,06,09,7.00
2011,04,01,06,10,7.00
2011,04,01,06,11,6.90
2011,04,01,06,12,6.90
2011,04,01,06,13,6.90
2011,04,01,06,14,6.90
2011,04,01,06,15,6.90
2011,04,01,06,16,6.90
2011,04,01,06,17,6.90
2011,04,01,06,18,6.90
2011,04,01,06,19,6.90
2011,04,01,06,20,6.90
2011,04,01,06,21,6.90
2011,04,01,06,22,6.90
2011,04,01,06,23,6.90
2011,04,01,06,24,6.90
2011,04,01,06,25,6.90
2011,04,01,06,26,6.90
2011,04,01,06,27,6.90
2011,04,01,06,28,6.90
2011,04,01,06,29,6.90
2011,04,01,06,30,6.90
2011,04,01,06,31,6.90
2011,04,01,06,32,6.90
2011,04,01,06,33,6.90
2011,04,01,06,34,6.90
2011,04,01,06,35,6.90
2011,04,01,06,36,6.90
2011,04,01,06,37,6.90
2011,04,01,06,38,6.90
2011,04,01,06,39,6.90
2011,04,01,06,40,6.90
2011,04,01,06,41,6.90
2011,04,01,06,42,6.90
2011,04,01,06,43,6.90
2011,04,01,06,44,6.90
2011,04,01,06,45,6.90
2011,04,01,06,46,6.90
2011,04,01,06,47,6.90
2011,04,01,06,48,6.90
2011,04,01,06,49,6.90
2011,04,01,06,50,6.90
2011,04,01,06,51,6.90
2011,04,01,06,52,6.80
2011,04,01,06,53,6.80
2011,04,01,06,54,6.80
2011,04,01,06,55,6.80
2011,04,01,06,56,6.80
2011,04,01,06,57,6.80
2011,04,01,06,58,6.80
2011,04,01,06,59,6.80
2011,04,01,07,00,6.70
2011,04,01,07,01,6.70
2011,04,01,07,02,6.70
2011,04,01,07,03,6.70
2011,04,01,07,04,6.70
2011,04,01,07,05,6.70
2011,04,01,07,06,6.70
2011,04,01,07,07,6.70
2011,04,01,07,08,6.70
2011,04,01,07,09,6.70
2011,04,01,07,10,6.70
2011,04,01,07,11,6.60
2011,04,01,07,12,6.60
2011,04,01,07,13,6.60
2011,04,01,07,14,6.60
2011,04,01,07,15,6.60
2011,04,01,07,16,6.60
2011,04,01,07,17,6.60
2011,04,01,07,18,6.60
2011,04,01,07,19,6.60
2011,04,01,07,20,6.60
2011,04,01,07,21,6.60
2011,04,01,07,22,6.60
2011,04,01,07,23,6.50
2011,04,01,07,24,6.50
2011,04,01,07,25,6.50
2011,04,01,07,26,6.50
2011,04,01,07,27,6.50
2011,04,01,07,28,6.50
2011,04,01,07,29,6.50
2011,04,01,07,30,6.50
2011,04,01,07,31,6.60
2011,04,01,07,32,6.60
2011,04,01,07,33,6.60
2011,04,01,07,34,6.60
2011,04,01,07,35,6.50
2011,04,01,07,36,6.50
2011,04,01,07,37,6.60
2011,04,01,07,38,6.60
2011,04,01,07,39,6.60
2011,04,01,07,40,6.60
2011,04,01,07,41,6.60
2011,04,01,07,42,6.60
2011,04,01,07,43,6.60
2011,04,01,07,44,6.60
2011,04,01,07,45,6.60
2011,04,01,07,46,6.60
2011,04,01,07,47,6.60
2011,04,01,07,48,6.60
2011,04,01,07,49,6.60
2011,04,01,07,50,6.60
2011,04,01,07,51,6.60
2011,04,01,07,52,6.60
2011,04,01,07,53,6.70
2011,04,01,07,54,6.70
2011,04,01,07,55,6.70
2011,04,01,07,56,6.70
2011,04,01,07,57,6.70
2011,04,01,07,58,6.70
2011,04,01,07,59,6.70
2011,04,01,08,00,6.70
2011,04,01,08,01,6.70
2011,04,01,08,02,6.70
2011,04,01,08,03,6.70
2011,04,01,08,04,6.70
2011,04,01,08,05,6.70
2011,04,01,08,06,6.70
2011,04,01,08,07,6.70
2011,04,01,08,08,6.70
2011,04,01,08,09,6.70
2011,04,01,08,10,6.70
2011,04,01,08,11,6.70
2011,04,01,08,12,6.70
2011,04,01,08,13,6.70
2011,04,01,08,14,6.70
2011,04,01,08,15,6.70
2011,04,01,08,16,6.70
2011,04,01,08,17,6.70
2011,04,01,08,18,6.70
2011,04,01,08,19,6.70
2011,04,01,08,20,6.70
2011,04,01,08,21,6.70
2011,04,01,08,22,6.70
2011,04,01,08,23,6.70
2011,04,01,08,24,6.70
2011,04,01,08,25,6.70
2011,04,01,08,26,6.70
2011,04,01,08,27,6.70
2011,04,01,08,28,6.70
2011,04,01,08,29,6.60
2011,04,01,08,30,6.60
2011,04,01,08,31,6.60
2011,04,01,08,32,6.60
2011,04,01,08,33,6.60
2011,04,01,08,34,6.60
2011,04,01,08,35,6.60
2011,04,01,08,36,6.60
2011,04,01,08,37,6.60
2011,04,01,08,38,6.60
2011,04,01,08,39,6.60
2011,04,01,08,40,6.60
2011,04,01,08,41,6.60
2011,04,01,08,42,6.60
2011,04,01,08,43,6.60
2011,04,01,08,44,6.60
2011,04,01,08,45,6.60
2011,04,01,08,46,6.60
2011,04,01,08,47,6.60
2011,04,01,08,48,6.60
2011,04,01,08,49,6.60
2011,04,01,08,50,6.60
2011,04,01,08,51,6.60
2011,04,01,08,52,6.60
2011,04,01,08,53,6.60
2011,04,01,08,54,6.60
2011,04,01,08,55,6.60
2011,04,01,08,56,6.50
2011,04,01,08,57,6.50
2011,04,01,08,58,6.50
2011,04,01,08,59,6.50
2011,04,01,09,00,6.50
2011,04,01,09,01,6.50
2011,04,01,09,02,6.50
2011,04,01,09,03,6.50
2011,04,01,09,04,6.50
2011,04,01,09,05,6.50
2011,04,01,09,06,6.50
2011,04,01,09,07,6.50
2011,04,01,09,08,6.50
2011,04,01,09,09,6.40
2011,04,01,09,10,6.40
2011,04,01,09,11,6.40
2011,04,01,09,12,6.40
2011,04,01,09,13,6.40
2011,04,01,09,14,6.40
2011,04,01,09,15,6.40
2011,04,01,09,16,6.40
2011,04,01,09,17,6.40
2011,04,01,09,18,6.40
2011,04,01,09,19,6.40
2011,04,01,09,20,6.40
2011,04,01,09,21,6.40
2011,04,01,09,22,6.40
2011,04,01,09,23,6.40
2011,04,01,09,24,6.40
2011,04,01,09,25,6.40
2011,04,01,09,26,6.40
2011,04,01,09,27,6.40
2011,04,01,09,28,6.40
2011,04,01,09,29,6.40
2011,04,01,09,30,6.40
2011,04,01,09,31,6.40
2011,04,01,09,32,6.40
2011,04,01,09,33,6.40
2011,04,01,09,34,6.40
2011,04,01,09,35,6.40
2011,04,01,09,36,6.40
2011,04,01,09,37,6.40
2011,04,01,09,38,6.40
2011,04,01,09,39,6.40
2011,04,01,09,40,6.40
2011,04,01,09,41,6.40
2011,04,01,09,42,6.40
2011,04,01,09,43,6.40
2011,04,01,09,44,6.40
2011,04,01,09,45,6.40
2011,04,01,09,46,6.40
2011,04,01,09,47,6.40
2011,04,01,09,48,6.40
2011,04,01,09,49,6.40
2011,04,01,09,50,6.40
2011,04,01,09,51,6.30
2011,04,01,09,52,6.30
2011,04,01,09,53,6.30
2011,04,01,09,54,6.30
2011,04,01,09,55,6.30
2011,04,01,09,56,6.30
2011,04,01,09,57,6.40
2011,04,01,09,58,6.40
2011,04,01,09,59,6.40
2011,04,01,10,00,6.40
2011,04,01,10,01,6.40
2011,04,01,10,02,6.40
2011,04,01,10,03,6.40
2011,04,01,10,04,6.40
2011,04,01,10,05,6.40
2011,04,01,10,06,6.40
2011,04,01,10,07,6.40
2011,04,01,10,08,6.40
2011,04,01,10,09,6.40
2011,04,01,10,10,6.40
2011,04,01,10,11,6.40
2011,04,01,10,12,6.40
2011,04,01,10,13,6.40
2011,04,01,10,14,6.40
2011,04,01,10,15,6.30
2011,04,01,10,16,6.40
2011,04,01,10,17,6.40
2011,04,01,10,18,6.30
2011,04,01,10,19,6.30
2011,04,01,10,20,6.30
2011,04,01,10,21,6.30
2011,04,01,10,22,6.30
2011,04,01,10,23,6.30
2011,04,01,10,24,6.30
2011,04,01,10,25,6.30
2011,04,01,10,26,6.30
2011,04,01,10,27,6.30
2011,04,01,10,28,6.30
2011,04,01,10,29,6.30
2011,04,01,10,30,6.30
2011,04,01,10,31,6.20
2011,04,01,10,32,6.20
2011,04,01,10,33,6.20
2011,04,01,10,34,6.20
2011,04,01,10,35,6.20
2011,04,01,10,36,6.20
2011,04,01,10,37,6.20
2011,04,01,10,38,6.20
2011,04,01,10,39,6.20
2011,04,01,10,40,6.20
2011,04,01,10,41,6.10
2011,04,01,10,42,6.10
2011,04,01,10,43,6.10
2011,04,01,10,44,6.10
2011,04,01,10,45,6.10
2011,04,01,10,46,6.10
2011,04,01,10,47,6.10
2011,04,01,10,48,6.10
2011,04,01,10,49,6.10
2011,04,01,10,50,6.10
2011,04,01,10,51,6.10
2011,04,01,10,52,6.10
2011,04,01,10,53,6.10
2011,04,01,10,54,6.10
2011,04,01,10,55,6.10
2011,04,01,10,56,6.10
2011,04,01,10,57,6.10
2011,04,01,10,58,6.10
2011,04,01,10,59,6.10
2011,04,01,11,00,6.10
2011,04,01,11,01,6.10
2011,04,01,11,02,6.10
2011,04,01,11,03,6.10
2011,04,01,11,04,6.10
2011,04,01,11,05,6.10
2011,04,01,11,06,6.10
2011,04,01,11,07,6.00
2011,04,01,11,08,6.10
2011,04,01,11,09,6.10
2011,04,01,11,10,6.10
2011,04,01,11,11,6.00
2011,04,01,11,12,6.10
2011,04,01,11,13,6.10
2011,04,01,11,14,6.10
2011,04,01,11,15,6.00
2011,04,01,11,16,6.00
2011,04,01,11,17,6.00
2011,04,01,11,18,6.00
2011,04,01,11,19,6.00
2011,04,01,11,20,6.00
2011,04,01,11,21,6.00
2011,04,01,11,22,6.00
2011,04,01,11,23,6.00
2011,04,01,11,24,6.00
2011,04,01,11,25,6.00
2011,04,01,11,26,6.00
2011,04,01,11,27,5.90
2011,04,01,11,28,5.90
2011,04,01,11,29,5.90
2011,04,01,11,30,5.90
2011,04,01,11,31,5.90
2011,04,01,11,32,5.90
2011,04,01,11,33,5.90
2011,04,01,11,34,5.90
2011,04,01,11,35,5.90
2011,04,01,11,36,5.90
2011,04,01,11,37,5.90
2011,04,01,11,38,5.90
2011,04,01,11,39,5.90
2011,04,01,11,40,5.90
2011,04,01,11,41,5.90
2011,04,01,11,42,5.80
2011,04,01,11,43,5.80
2011,04,01,11,44,5.80
2011,04,01,11,45,5.80
2011,04,01,11,46,5.80
2011,04,01,11,47,5.70
2011,04,01,11,48,5.70
2011,04,01,11,49,5.70
2011,04,01,11,50,5.70
2011,04,01,11,51,5.70
2011,04,01,11,52,5.80
2011,04,01,11,53,5.80
2011,04,01,11,54,5.80
2011,04,01,11,55,5.80
2011,04,01,11,56,5.80
2011,04,01,11,57,5.70
2011,04,01,11,58,5.70
2011,04,01,11,59,5.70
2011,04,01,12,00,5.70
2011,04,01,12,01,5.60
2011,04,01,12,02,5.60
2011,04,01,12,03,5.60
2011,04,01,12,04,5.60
2011,04,01,12,05,5.50
2011,04,01,12,06,5.50
2011,04,01,12,07,5.50
2011,04,01,12,08,5.50
2011,04,01,12,09,5.50
2011,04,01,12,10,5.50
2011,04,01,12,11,5.50
2011,04,01,12,12,5.40
2011,04,01,12,13,5.50
2011,04,01,12,14,5.50
2011,04,01,12,15,5.50
2011,04,01,12,16,5.50
2011,04,01,12,17,5.50
2011,04,01,12,18,5.50
2011,04,01,12,19,5.50
2011,04,01,12,20,5.50
2011,04,01,12,21,5.50
2011,04,01,12,22,5.50
2011,04,01,12,23,5.50
2011,04,01,12,24,5.50
2011,04,01,12,25,5.40
2011,04,01,12,26,5.40
2011,04,01,12,27,5.40
2011,04,01,12,28,5.40
2011,04,01,12,29,5.40
2011,04,01,12,30,5.40
2011,04,01,12,31,5.40
2011,04,01,12,32,5.40
2011,04,01,12,33,5.40
2011,04,01,12,34,5.40
2011,04,01,12,35,5.40
2011,04,01,12,36,5.40
2011,04,01,12,37,5.40
2011,04,01,12,38,5.40
2011,04,01,12,39,5.50
2011,04,01,12,40,5.50
2011,04,01,12,41,5.50
2011,04,01,12,42,5.60
2011,04,01,12,43,5.60
2011,04,01,12,44,5.50
2011,04,01,12,45,5.60
2011,04,01,12,46,5.50
2011,04,01,12,47,5.50
2011,04,01,12,48,5.50
2011,04,01,12,49,5.50
2011,04,01,12,50,5.50
2011,04,01,12,51,5.60
2011,04,01,12,52,5.60
2011,04,01,12,53,5.60
2011,04,01,12,54,5.60
2011,04,01,12,55,5.60
2011,04,01,12,56,5.60
2011,04,01,12,57,5.60
2011,04,01,12,58,5.60
2011,04,01,12,59,5.60
2011,04,01,13,00,5.60
2011,04,01,13,01,5.60
2011,04,01,13,02,5.60
2011,04,01,13,03,5.60
2011,04,01,13,04,5.60
2011,04,01,13,05,5.60
2011,04,01,13,06,5.60
2011,04,01,13,07,5.60
2011,04,01,13,08,5.50
2011,04,01,13,09,5.50
2011,04,01,13,10,5.50
2011,04,01,13,11,5.50
2011,04,01,13,12,5.40
2011,04,01,13,13,5.40
2011,04,01,13,14,5.40
2011,04,01,13,15,5.40
2011,04,01,13,16,5.40
2011,04,01,13,17,5.40
2011,04,01,13,18,5.40
2011,04,01,13,19,5.40
2011,04,01,13,20,5.40
2011,04,01,13,21,5.40
2011,04,01,13,22,5.40
2011,04,01,13,23,5.40
2011,04,01,13,24,5.30
2011,04,01,13,25,5.30
2011,04,01,13,26,5.30
2011,04,01,13,27,5.30
2011,04,01,13,28,5.30
2011,04,01,13,29,5.30
2011,04,01,13,30,5.30
2011,04,01,13,31,5.30
2011,04,01,13,32,5.30
2011,04,01,13,33,5.30
2011,04,01,13,34,5.30
2011,04,01,13,35,5.30
2011,04,01,13,36,5.30
2011,04,01,13,37,5.20
2011,04,01,13,38,5.20
2011,04,01,13,39,5.20
2011,04,01,13,40,5.20
2011,04,01,13,41,5.20
2011,04,01,13,42,5.20
2011,04,01,13,43,5.20
2011,04,01,13,44,5.20
2011,04,01,13,45,5.20
2011,04,01,13,46,5.20
2011,04,01,13,47,5.20
2011,04,01,13,48,5.20
2011,04,01,13,49,5.20
2011,04,01,13,50,5.20
2011,04,01,13,51,5.20
2011,04,01,13,52,5.20
2011,04,01,13,53,5.10
2011,04,01,13,54,5.10
2011,04,01,13,55,5.20
2011,04,01,13,56,5.20
2011,04,01,13,57,5.20
2011,04,01,13,58,5.20
2011,04,01,13,59,5.20
2011,04,01,14,00,5.20
2011,04,01,14,01,5.20
2011,04,01,14,02,5.20
2011,04,01,14,03,5.20
2011,04,01,14,04,5.20
2011,04,01,14,05,5.20
2011,04,01,14,06,5.20
2011,04,01,14,07,5.20
2011,04,01,14,08,5.20
2011,04,01,14,09,5.20
2011,04,01,14,10,5.20
2011,04,01,14,11,5.20
2011,04,01,14,12,5.20
2011,04,01,14,13,5.20
2011,04,01,14,14,5.20
2011,04,01,14,15,5.30
2011,04,01,14,16,5.30
2011,04,01,14,17,5.30
2011,04,01,14,18,5.30
2011,04,01,14,19,5.30
2011,04,01,14,20,5.30
2011,04,01,14,21,5.20
2011,04,01,14,22,5.20
2011,04,01,14,23,5.20
2011,04,01,14,24,5.20
2011,04,01,14,25,5.20
2011,04,01,14,26,5.20
2011,04,01,14,27,5.20
2011,04,01,14,28,5.20
2011,04,01,14,29,5.20
2011,04,01,14,30,5.20
2011,04,01,14,31,5.20
2011,04,01,14,32,5.20
2011,04,01,14,33,5.20
2011,04,01,14,34,5.20
2011,04,01,14,35,5.20
2011,04,01,14,36,5.20
2011,04,01,14,37,5.20
2011,04,01,14,38,5.20
2011,04,01,14,39,5.20
2011,04,01,14,40,5.20
2011,04,01,14,41,5.20
2011,04,01,14,42,5.20
2011,04,01,14,43,5.30
2011,04,01,14,44,5.20
2011,04,01,14,45,5.20
2011,04,01,14,46,5.20
2011,04,01,14,47,5.20
2011,04,01,14,48,5.20
2011,04,01,14,49,5.20
2011,04,01,14,50,5.20
2011,04,01,14,51,5.30
2011,04,01,14,52,5.30
2011,04,01,14,53,5.30
2011,04,01,14,54,5.30
2011,04,01,14,55,5.30
2011,04,01,14,56,5.30
2011,04,01,14,57,5.30
2011,04,01,14,58,5.30
2011,04,01,14,59,5.30
2011,04,01,15,00,5.30
2011,04,01,15,01,5.30
2011,04,01,15,02,5.30
2011,04,01,15,03,5.30
2011,04,01,15,04,5.30
2011,04,01,15,05,5.30
2011,04,01,15,06,5.30
2011,04,01,15,07,5.30
2011,04,01,15,08,5.30
2011,04,01,15,09,5.30
2011,04,01,15,10,5.30
2011,04,01,15,11,5.40
2011,04,01,15,12,5.40
2011,04,01,15,13,5.40
2011,04,01,15,14,5.40
2011,04,01,15,15,5.40
2011,04,01,15,16,5.40
2011,04,01,15,17,5.40
2011,04,01,15,18,5.30
2011,04,01,15,19,5.40
2011,04,01,15,20,5.40
2011,04,01,15,21,5.40
2011,04,01,15,22,5.40
2011,04,01,15,23,5.40
2011,04,01,15,24,5.40
2011,04,01,15,25,5.40
2011,04,01,15,26,5.40
2011,04,01,15,27,5.40
2011,04,01,15,28,5.40
2011,04,01,15,29,5.50
2011,04,01,15,30,5.50
2011,04,01,15,31,5.50
2011,04,01,15,32,5.60
2011,04,01,15,33,5.60
2011,04,01,15,34,5.60
2011,04,01,15,35,5.60
2011,04,01,15,36,5.60
2011,04,01,15,37,5.50
2011,04,01,15,38,5.60
2011,04,01,15,39,5.60
2011,04,01,15,40,5.60
2011,04,01,15,41,5.60
2011,04,01,15,42,5.60
2011,04,01,15,43,5.60
2011,04,01,15,44,5.60
2011,04,01,15,45,5.60
2011,04,01,15,46,5.60
2011,04,01,15,47,5.60
2011,04,01,15,48,5.60
2011,04,01,15,49,5.60
2011,04,01,15,50,5.60
2011,04,01,15,51,5.60
2011,04,01,15,52,5.60
2011,04,01,15,53,5.60
2011,04,01,15,54,5.60
2011,04,01,15,55,5.60
2011,04,01,15,56,5.60
2011,04,01,15,57,5.60
2011,04,01,15,58,5.70
2011,04,01,15,59,5.70
2011,04,01,16,00,5.70
2011,04,01,16,01,5.70
2011,04,01,16,02,5.70
2011,04,01,16,03,5.70
2011,04,01,16,04,5.70
2011,04,01,16,05,5.70
2011,04,01,16,06,5.70
2011,04,01,16,07,5.80
2011,04,01,16,08,5.80
2011,04,01,16,09,5.80
2011,04,01,16,10,5.80
2011,04,01,16,11,5.80
2011,04,01,16,12,5.80
2011,04,01,16,13,5.80
2011,04,01,16,14,5.80
2011,04,01,16,15,5.80
2011,04,01,16,16,5.80
2011,04,01,16,17,5.90
2011,04,01,16,18,5.90
2011,04,01,16,19,5.90
2011,04,01,16,20,5.90
2011,04,01,16,21,5.90
2011,04,01,16,22,6.00
2011,04,01,16,23,6.00
2011,04,01,16,24,6.00
2011,04,01,16,25,6.00
2011,04,01,16,26,6.00
2011,04,01,16,27,6.00
2011,04,01,16,28,6.00
2011,04,01,16,29,6.00
2011,04,01,16,30,6.00
2011,04,01,16,31,6.00
2011,04,01,16,32,6.00
2011,04,01,16,33,5.90
2011,04,01,16,34,5.90
2011,04,01,16,35,5.90
2011,04,01,16,36,6.00
2011,04,01,16,37,6.00
2011,04,01,16,38,6.00
2011,04,01,16,39,6.00
2011,04,01,16,40,6.00
2011,04,01,16,41,6.00
2011,04,01,16,42,6.00
2011,04,01,16,43,6.00
2011,04,01,16,44,6.00
2011,04,01,16,45,6.00
2011,04,01,16,46,6.00
2011,04,01,16,47,5.90
2011,04,01,16,48,5.90
2011,04,01,16,49,6.00
2011,04,01,16,50,6.00
2011,04,01,16,51,5.90
2011,04,01,16,52,5.90
2011,04,01,16,53,5.90
2011,04,01,16,54,5.90
2011,04,01,16,55,5.90
2011,04,01,16,56,5.90
2011,04,01,16,57,5.90
2011,04,01,16,58,5.90
2011,04,01,16,59,5.90
2011,04,01,17,00,5.90
2011,04,01,17,01,5.90
2011,04,01,17,02,5.90
2011,04,01,17,03,5.90
2011,04,01,17,04,6.00
2011,04,01,17,05,6.00
2011,04,01,17,06,6.10
2011,04,01,17,07,6.00
2011,04,01,17,08,6.00
2011,04,01,17,09,6.00
2011,04,01,17,10,6.00
2011,04,01,17,11,6.00
2011,04,01,17,12,6.00
2011,04,01,17,13,6.00
2011,04,01,17,14,5.90
2011,04,01,17,15,5.90
2011,04,01,17,16,5.90
2011,04,01,17,17,5.90
2011,04,01,17,18,5.90
2011,04,01,17,19,5.90
2011,04,01,17,20,6.00
2011,04,01,17,21,6.00
2011,04,01,17,22,6.00
2011,04,01,17,23,6.00
2011,04,01,17,24,6.00
2011,04,01,17,25,6.00
2011,04,01,17,26,6.00
2011,04,01,17,27,6.00
2011,04,01,17,28,6.00
2011,04,01,17,29,6.00
2011,04,01,17,30,6.00
2011,04,01,17,31,6.00
2011,04,01,17,32,6.00
2011,04,01,17,33,6.00
2011,04,01,17,34,6.00
2011,04,01,17,35,6.10
2011,04,01,17,36,6.10
2011,04,01,17,37,6.10
2011,04,01,17,38,6.10
2011,04,01,17,39,6.10
2011,04,01,17,40,6.10
2011,04,01,17,41,6.10
2011,04,01,17,42,6.10
2011,04,01,17,43,6.10
2011,04,01,17,44,6.10
2011,04,01,17,45,6.10
2011,04,01,17,46,6.10
2011,04,01,17,47,6.10
2011,04,01,17,48,6.10
2011,04,01,17,49,6.10
2011,04,01,17,50,6.10
2011,04,01,17,51,6.10
2011,04,01,17,52,6.10
2011,04,01,17,53,6.10
2011,04,01,17,54,6.10
2011,04,01,17,55,6.10
2011,04,01,17,56,6.10
2011,04,01,17,57,6.10
2011,04,01,17,58,6.10
2011,04,01,17,59,6.10
2011,04,01,18,00,6.20
2011,04,01,18,01,6.10
2011,04,01,18,02,6.10
2011,04,01,18,03,6.10
2011,04,01,18,04,6.20
2011,04,01,18,05,6.20
2011,04,01,18,06,6.20